Regional Weather Roundup
Issued by NWS

Home | Current Version | Previous Version | Text Only | Print | Product List | Glossary On
Versions: 1 2 3 4 5 6 7 8 9 10 11 12 13 14 15 16 17 18 19 20 21 22 23 24 25 26 27 28 29 30 31 32 33 34 35 36 37 38 39 40 41 42
000
ASUS43 KDMX 260207
RWRIA

WEATHER ROUNDUP FOR IOWA
NATIONAL WEATHER SERVICE DES MOINES IA
800 PM CST THU DEC 25 2014

NOTE: "FAIR" INDICATES FEW OR NO CLOUDS BELOW 12,000 FEET WITH NO
SIGNIFICANT WEATHER AND/OR OBSTRUCTIONS TO VISIBILITY.

* - THESE STATIONS ARE NOT NWS STATIONS...THUS NOT UNDER NWS
QUALITY CONTROL.  THEY ALSO DO NOT REPORT WEATHER SUCH
AS PRECIPITATION OR FOG.

IAZ001>003-012>014-020>022-031>034-043>046-260300-
   NORTHWEST IOWA

CITY           SKY/WX    TMP DP  RH WIND       PRES   REMARKS
CARROLL *      PTCLDY    34  32  93 CALM      29.72R
CHEROKEE *     CLOUDY    32  32 100 NE7       29.73R WCI  26
DENISON *      CLEAR     34  34 100 E6        29.68S WCI  29
LE MARS *      CLOUDY    32  32 100 NE10      29.74R WCI  24
ORANGE CITY *  CLOUDY    34  30  86 NE9       29.74R WCI  26
SHELDON *      MOCLDY    32  32 100 NE13      29.74S WCI  22
SIOUX CITY     CLEAR     32  29  88 N9        29.72R WCI  24
SPENCER        MOCLDY    32  29  88 NE10      29.75S WCI  24
STORM LAKE *   CLEAR     32  30  93 NE8       29.73R WCI  25
$$

IAZ055>058-069>071-079>083-090>094-260300-
   SOUTHWEST IOWA

CITY           SKY/WX    TMP DP  RH WIND       PRES   REMARKS
ATLANTIC *     CLEAR     41  32  70 S8        29.70R
AUDUBON *      CLEAR     36  28  75 SE3       29.72R
CLARINDA *     CLEAR     43  32  65 S7        29.73R
COUNCIL BLFS * CLEAR     39  34  81 S7        29.67R WCI  34
CRESTON *      CLEAR     39  32  75 SE10      29.73R WCI  32
HARLAN  *      CLEAR     37  36  93 CALM      29.73R
LAMONI         MOCLDY    43  32  65 S10       29.75R
RED OAK *      CLEAR     41  32  70 SE5       29.70S
SHENANDOAH *   CLEAR     45  34  65 S12       29.70S
$$

IAZ047>049-059>061-072>074-084-260300-
   CENTRAL IOWA

CITY           SKY/WX    TMP DP  RH WIND       PRES   REMARKS
AMES           MOCLDY    36  29  75 SE5       29.76R WCI  32
ANKENY *       CLEAR     39  30  70 SE7       29.77R WCI  34
CHARITON *     MOCLDY    41  32  70 SE12      29.77S
DES MOINES     CLOUDY    44  30  57 SE12      29.76S
GRINNELL*      PTCLDY    36  32  87 E7        29.80S WCI  30
KNOXVILLE *    CLEAR     43  30  61 SE10      29.76S
MARSHALLTOWN   PTCLDY    40  32  73 SE15      29.78S WCI  32
PELLA *        PTCLDY    41  32  70 SE10      29.80S
PERRY *          N/A     36  32  87 SE8       29.74R WCI  29
$$

IAZ004>006-015-016-023>025-035-036-260300-
   NORTH CENTRAL IOWA

CITY           SKY/WX    TMP DP  RH WIND       PRES   REMARKS
ALGONA *       CLOUDY    32  18  55 E7        29.76S WCI  26
CLARION *      CLEAR     36  34  93 SE13      29.76R WCI  27
ESTHERVILLE    PTCLDY    30  29  96 N9        29.76S WCI  22
FORT DODGE *   PTCLDY    34  27  75 E5        29.75R WCI  30
MASON CITY     MOCLDY    35  32  88 SE8       29.79R WCI  29
FOREST CITY *  CLEAR     34  32  93 E5        29.77S WCI  30
IOWA FALLS *     N/A     36  32  87 SE9       29.79R WCI  29
$$

IAZ007>011-017>019-026>030-037>042-050>054-066-260300-
   NORTHEAST IOWA

CITY           SKY/WX    TMP DP  RH WIND       PRES   REMARKS
CEDAR RAPIDS   MOCLDY    41  33  73 S10       29.84R
CHARLES CITY * PTCLDY    37  34  87 SE13      29.81R WCI  29
CLINTON *      MOCLDY    39  32  75 SE13      29.93R WCI  32
DECORAH *      CLEAR     37  32  81 S8        29.82S WCI  31
DUBUQUE        CLOUDY    36  31  82 S13       29.87S WCI  27
MONTICELLO *   CLEAR     39  34  81 SE7G14    29.87R WCI  34
OELWEIN *      PTCLDY    37  32  81 SE13      29.83R WCI  29
WATERLOO       PTCLDY    40  32  73 S14G22    29.81R WCI  32
$$

IAZ064-065-067-068-078-260300-
   EAST CENTRAL IOWA

CITY           SKY/WX    TMP DP  RH WIND       PRES   REMARKS
DAVENPORT      CLOUDY    41  32  70 S18       29.90R
IOWA CITY      MOCLDY    38  32  79 SE6       29.88R WCI  33
MT. PLEASANT * PTCLDY    41  32  70 SE12      29.87R
MUSCATINE *    CLEAR     41  32  70 SE7G13    29.88R
QUAD CITIES    CLOUDY    41  33  73 SE12      29.89S
$$

IAZ062-063-075>077-085>089-095>099-260300-
   SOUTHEAST IOWA

CITY           SKY/WX    TMP DP  RH WIND       PRES   REMARKS
BURLINGTON     PTCLDY    42  33  70 SE12      29.87R
FAIRFIELD *    CLEAR     39  32  75 SE9       29.84R WCI  33
FORT MADISON * CLEAR     45  36  70 SE14      29.87R
KEOKUK *       CLEAR     43  32  65 SE7       29.87R
OSKALOOSA *      N/A     37  32  81 SE13      29.82R WCI  29
CENTERVILLE *  CLEAR     41  32  70 SE9       29.80S
OTTUMWA        PTCLDY    42  30  62 SE12      29.81R
WASHINGTON *   CLEAR     39  36  87 SE10      29.86R WCI  32
$$

ABBREVIATIONS USED IN REMARKS
   TC - TEMPERATURES IN CELSIUS
  WCI - WIND CHILL INDEX
   HX - HEAT INDEX
  VSB - VISIBILITY
$$




USA.gov is the U.S. government's official web portal to all federal, state and local government web resources and services.